Tracking 29059 objects as of 18-Jun-2024
HD Live streaming from Space Station
objects crossing your sky now

DELTA 1 R/B

Track DELTA 1 R/B now!
10-day predictions


NORAD ID: 979
Int'l Code: 1965-004B
Perigee: 708.8 km
Apogee: 2,533.6 km
Inclination: 96.4 °
Period: 118.5 minutes
Semi major axis: 7992 km
RCS: 0.4861 m2 (medium)
Launch date: January 22, 1965
Source: United States (US)
Launch site: AIR FORCE EASTERN TEST RANGE (AFETR)

Note: This is a ROCKET BODY
Your satellite tracking list
Your tracking list is empty




NASA's NSSDC Master Catalog

Two Line Element Set (TLE):
1 00979U 65004B   24169.50914254  .00000211  00000-0  27039-3 0  9990
2 00979  96.4113   6.1872 1141654  50.6368 319.0379 12.15079455626921
Source of the keplerian elements: AFSPC